Regional Weather Roundup
Issued by NWS

Home | Current Version | Previous Version | Text Only | Print | Product List | Glossary On
Versions: 1 2 3 4 5 6 7 8 9 10 11 12 13 14 15 16 17 18 19 20 21 22 23 24 25 26 27 28 29 30 31 32 33 34 35 36 37 38 39 40 41 42 43 44 45 46 47 48 49 50
000
ASUS43 KMPX 250110
RWRMN
WEATHER ROUNDUP FOR MINNESOTA
NATIONAL WEATHER SERVICE TWIN CITIES/CHANHASSEN MN
700 PM CST WED DEC 24 2014


NOTE: "FAIR" INDICATES FEW OR NO CLOUDS BELOW 12,000 FEET WITH NO
SIGNIFICANT WEATHER AND/OR OBSTRUCTIONS TO VISIBILITY. N/A MEANS
CURRENT SKY AND/OR WEATHER CONDITIONS ARE NOT AVAILABLE.

MNZ060>063-068>070-250200-
   Twin Cities Metro

CITY           SKY/WX    TMP DP  RH WIND       PRES   REMARKS
TWIN CITIES    CLOUDY    34  29  82 W8        29.61F WCI  27
ST PAUL        CLOUDY    34  31  88 W10       29.62F WCI  26
CRYSTAL        CLOUDY    34  31  88 W6        29.60S WCI  29
BLAINE         CLOUDY    36  36 100 W7        29.60F
LAKEVILLE      CLOUDY    30  30 100 W7        29.62R WCI  23
EDEN PRAIRIE   CLOUDY    33  29  85 W8        29.61S WCI  26
SOUTH ST PAUL  CLOUDY    35  32  90 W9        29.61S WCI  27
LAKE ELMO      CLOUDY    34  32  93 W5        29.61S WCI  30
$$
MNZ001>005-007-008-013>017-022>024-027-028-250200-
   Northwest Minnesota

CITY           SKY/WX    TMP DP  RH WIND       PRES   REMARKS
BEMIDJI        CLOUDY    30  27  90 S5        29.49F WCI  25
HALLOCK        LGT SNOW  28  27  93 S16       29.46S WCI  17
ROSEAU         CLOUDY    28  25  86 S9        29.46F WCI  20
WARROAD        CLOUDY    28  25  86 S6        29.47F WCI  22
THIEF RVR FALL CLOUDY    27  25  93 S15       29.47F WCI  15
CROOKSTON      CLOUDY    27  27 100 S17       29.50F FOG     WCI  14
FOSSTON        CLOUDY    25  25 100 S14       29.50F WCI  13
DETROIT LAKES  CLOUDY    28  28 100 S9        29.52F WCI  20
MOORHEAD       CLOUDY    28  28 100 S13       29.54F WCI  18
PARK RAPIDS    CLOUDY    29  27  92 SW9       29.52F WCI  20
MAHNOMEN       CLOUDY    26  25  96 S9        29.50F WCI  17
$$
MNZ006-009>011-018-025>026-250200-
   North Central Minnesota

CITY           SKY/WX    TMP DP  RH WIND       PRES   REMARKS
BAUDETTE       CLOUDY    30  26  85 S8        29.47F WCI  22
FLAG ISLAND    CLOUDY    28  27  93 S8        29.45F WCI  20
INTL FALLS     LGT SNOW  32  30  92 CALM      29.49F FOG
WASKISH        CLOUDY    30  30 100 CALM      29.49F
BIG FORK       CLOUDY    32  30  93 SW3       29.51F
LONGVILLE      CLOUDY    30  28  93 S3        29.52F
GRAND RAPIDS   CLOUDY    30  28  93 S3        29.51F
CRANE LAKE     CLOUDY    30  30 100 CALM      29.53F
ORR            CLOUDY    30  30 100 CALM      29.49F
COOK           CLOUDY    32  30  93 SW5       29.52S WCI  27
WALKER         CLOUDY    30  27  89 SW7       29.51F WCI  23
$$
MNZ012-019>021-037-250200-
   Northeast Minnesota

CITY           SKY/WX    TMP DP  RH WIND       PRES   REMARKS
DULUTH         CLOUDY    31  28  89 W5        29.51F WCI  26
ELY            CLOUDY    30  28  93 CALM      29.51S
HIBBING        LGT SNOW  33  30  88 SW3       29.52F FOG
EVELETH        CLOUDY    32  32 100 SW5       29.52F WCI  27
DULUTH HARBOR  CLOUDY    34  30  86 CALM      29.55F
TWO HARBORS    CLOUDY    36  30  80 SW3       29.51F
SILVER BAY     MOCLDY    30  28  93 CALM      29.50F
GRAND MARAIS     N/A     33  29  85 CALM      29.53F
G MARAIS ARPRT CLOUDY    27  25  93 CALM      29.49F
$$
MNZ029>031-032-039>041-046>048-054>057-064-250200-
   West Central Minnesota

CITY           SKY/WX    TMP DP  RH WIND       PRES   REMARKS
FERGUS FALLS   CLOUDY    27  27 100 S13       29.57F WCI  16
WHEATON        CLOUDY    27  25  93 S8        29.58F WCI  18
MORRIS         MOCLDY    28  27  93 S9        29.57F WCI  20
ALEXANDRIA     CLOUDY    28  26  92 SW12      29.57F WCI  18
ELBOW LAKE     CLOUDY    27  26  96 S10       29.56F WCI  17
WADENA         CLOUDY    27  27 100 SW6       29.54F WCI  20
GLENWOOD       CLOUDY    28  27  93 SW10      29.58S WCI  19
APPLETON       CLOUDY    28  27  93 S8        29.59F WCI  20
BENSON         CLOUDY    28  27  93 SW9       29.59F WCI  20
ORTONVILLE     CLOUDY    28  25  86 S7        29.58F WCI  21
MADISON          N/A     32  28  86 SW10      29.59F WCI  24
WILLMAR        CLOUDY    30  28  93 SW8       29.62S WCI  23
$$
MNZ033>034-036-042>043-049>051-058-059-250200-
   Central Minnesota

CITY           SKY/WX    TMP DP  RH WIND       PRES   REMARKS
ST CLOUD       CLOUDY    34  28  79 W8        29.59S WCI  27
SAUK CENTRE    CLOUDY    29  27  94 SW9       29.58S WCI  20
PAYNESVILLE    CLOUDY    28  27  97 S8        29.60S WCI  20
AITKIN         CLOUDY    36  28  75 CALM      29.54S
PINE RIVER     CLOUDY    30  28  93 CALM      29.58F
BRAINERD       CLOUDY    31  29  92 S7        29.55F WCI  24
STAPLES        CLOUDY    28  27  93 SW7       29.55F WCI  21
LONG PRAIRIE   CLOUDY    30  28  93 W9        29.57F WCI  22
LITTLE FALLS   CLOUDY    32  28  86 CALM      29.58S
LITCHFIELD     CLOUDY    30  30 100 CALM      29.61F
BUFFALO        CLOUDY    32  30  92 W6        29.63R WCI  26
MAPLE LAKE     CLOUDY    33  32  96 SW7       29.61F WCI  26
$$
MNZ037-044-045-052-053-250200-
   East Central Minnesota

CITY           SKY/WX    TMP DP  RH WIND       PRES   REMARKS
PRINCETON      CLOUDY    34  30  86 W3        29.60S
MORA           CLOUDY    32  28  86 W6        29.60S WCI  26
CAMBRIDGE      CLOUDY    36  27  69 W5        29.58S
RUSH CITY      CLOUDY    33  31  91 CALM      29.59S
MOOSE LAKE     CLOUDY    32  32 100 SW3       29.53F
HINCKLEY       CLOUDY    32  32 100 CALM      29.57F
CLOQUET        CLOUDY    32  30  93 SW3       29.53F
MCGREGOR       CLOUDY    32  32 100 SW3       29.55F
$$
MNZ071>073-080-081-089-090-097-098-250200-
   Southwest Minnesota

CITY           SKY/WX    TMP DP  RH WIND       PRES   REMARKS
MONTEVIDEO     CLOUDY    28  28 100 SW7       29.62F WCI  21
GRANITE FALLS  CLOUDY    28  27  93 S7        29.64S WCI  21
CANBY          MOCLDY    27  25  92 SW9       29.60F WCI  18
MARSHALL       CLOUDY    27  23  86 SW10      29.61F WCI  17
REDWOOD FALLS  CLOUDY    31  28  89 S8        29.62F WCI  23
OLIVIA         CLOUDY    30  28  93 SW8       29.60F WCI  23
PIPESTONE      CLOUDY    25  25 100 W8        29.62R FOG     WCI  16
WINDOM         CLOUDY    28  27  93 SW8       29.62F WCI  20
WORTHINGTON    CLOUDY    27 -20  12 SW13      29.63F WCI  16
JACKSON        CLOUDY    30  28  93 SW9       29.64F WCI  22
TRACY          CLOUDY    28  27  95 SW12      29.62S WCI  18
SLAYTON        CLOUDY    26  25  99 SW10      29.61F FOG     WCI  16
$$
MNZ065>067-074>077-082>085-091>093-250200-
   South Central Minnesota

CITY           SKY/WX    TMP DP  RH WIND       PRES   REMARKS
MANKATO        CLOUDY    32  27  80 W7        29.63F WCI  26
NEW ULM        CLOUDY    30  28  93 SW8       29.63F WCI  23
ST JAMES       CLOUDY    32  28  86 SW9       29.65  WCI  24
FAIRMONT       CLOUDY    30  27  86 W7        29.64F WCI  23
GLENCOE        CLOUDY    32  31  96 SW3       29.62S
FARIBAULT      CLOUDY   N/A N/A N/A W9        29.63S
OWATONNA       CLOUDY    32  28  86 W9        29.63S WCI  24
ALBERT LEA     CLOUDY    30  30 100 W8        29.64S WCI  23
$$
MNZ078>079-086>088-094>096-250200-
   Southeast Minnesota

CITY           SKY/WX    TMP DP  RH WIND       PRES   REMARKS
ROCHESTER      CLOUDY    32  29  88 NW10      29.62S WCI  24
RED WING       CLOUDY    34  30  86 CALM      29.60F
STANTON        CLOUDY    34  32  92 W7        29.61S WCI  28
DODGE CENTER   CLOUDY    32  30  93 W12       29.61S WCI  23
WINONA         CLOUDY    36  32  87 NW5       29.62R
AUSTIN         CLOUDY    32  30  93 W9        29.63S WCI  24
PRESTON        CLOUDY    32  29  87 NW8       29.62S WCI  25
$$
ABBREVIATIONS USED IN REMARKS
   TC - TEMPERATURES IN CELSIUS
  WCI - WIND CHILL INDEX
   HX - HEAT INDEX
  VSB - VISIBILITY
$$



USA.gov is the U.S. government's official web portal to all federal, state and local government web resources and services.